Leeming, United Kingdom

4:58 PM BST on June 27, 2017 (GMT +0100)
Leeming Air Base

Weather History for EGXE - November, 2012

Change the Weather History Date:

Wednesday, November 28, 2012

  Actual Average Record
Temperature  
Mean Temperature 38 °F -  
Max Temperature 42 °F 44 °F - ()
Min Temperature 35 °F 34 °F - ()
Degree Days  
Heating Degree Days 26    
Moisture  
Dew Point 33 °F    
Average Humidity 77    
Maximum Humidity 93    
Minimum Humidity 59    
Precipitation  
Precipitation 0.00 in 0.07 in - ()
Sea Level Pressure  
Sea Level Pressure 30.01 in    
Wind  
Wind Speed 14 mph ()    
Max Wind Speed 20 mph    
Max Gust Speed -    
Visibility 7.8 miles    
Events Rain    
T = Trace of Precipitation, MM = Missing Value Source: Averaged Metar Reports

Daily Weather History Graph

Daily Weather History Graph

Search for Another Location

Airport or City:

Trip Planner

Search our weather history database for the weather conditions in past years. The results will help you decide how hot, cold, wet, or windy it might be!

Date:

Astronomy

Nov. 28, 2012 Rise Set
Actual Time 7:59 AM GMT 3:48 PM GMT
Civil Twilight 7:16 AM GMT 4:31 PM GMT
Nautical Twilight 6:31 AM GMT 5:16 PM GMT
Astronomical Twilight 5:48 AM GMT 5:59 PM GMT
Moon 3:52 PM GMT (11/28) 7:43 AM GMT (11/28)
Length of Visible Light 9h 14m
Length of Day
7h 49m
Full, 100% of the Moon is Illuminated
Nov 28
Full
Nov 28
Full
Dec 6
Last Quarter
Dec 13
New
Dec 20
First Quarter

Hourly Weather History & Observations

Time (GMT) Temp. Windchill Dew Point Humidity Pressure Visibility Wind Dir Wind Speed Gust Speed Precip Events Conditions
12:50 AM 41.0 °F 33.9 °F 39.2 °F 93% 29.95 in 6.2 mi NNW 12.7 mph - N/A Rain Light Rain Showers
1:50 AM 41.0 °F 33.5 °F 37.4 °F 87% 29.95 in 6.2 mi NNW 13.8 mph - N/A Rain Light Rain Showers
2:50 AM 41 °F - 36 °F 78% 29.98 in 16 mi NNW 16.1 mph - - Rain Rain
2:50 AM 41.0 °F 32.8 °F 37.4 °F 87% 29.98 in 6.2 mi NNW 16.1 mph - N/A   Scattered Clouds
3:50 AM 41.0 °F 32.5 °F 35.6 °F 81% 29.98 in 6.2 mi NNW 17.3 mph - N/A   Scattered Clouds
4:50 AM 39.2 °F 30.2 °F 35.6 °F 87% 29.98 in 6.2 mi NNW 17.3 mph - N/A   Mostly Cloudy
5:50 AM 40 °F - 35 °F 78% 29.99 in 19 mi NNW 19.6 mph - -   Mostly Cloudy
5:50 AM 41.0 °F 31.9 °F 35.6 °F 81% 29.98 in 6.2 mi NNW 19.6 mph - N/A   Mostly Cloudy
6:50 AM 39.2 °F 30.2 °F 33.8 °F 81% 29.98 in 6.2 mi NNW 17.3 mph - N/A   Scattered Clouds
7:50 AM 39.2 °F 29.8 °F 33.8 °F 81% 30.01 in 6.2 mi NNW 18.4 mph - N/A   Scattered Clouds
8:50 AM 39 °F - 34 °F 74% 30.03 in 25 mi NNW 17.3 mph - -   Partly Cloudy
8:50 AM 39.2 °F 30.2 °F 33.8 °F 81% 30.01 in 6.2 mi NNW 17.3 mph - N/A   Scattered Clouds
9:50 AM 39.2 °F 30.2 °F 33.8 °F 81% 30.04 in 6.2 mi NNW 17.3 mph - N/A   Mostly Cloudy
10:50 AM 41.0 °F 31.9 °F 33.8 °F 76% 30.04 in 6.2 mi NNW 19.6 mph - N/A   Partly Cloudy
11:50 AM 42 °F - 33 °F 62% 30.04 in 22 mi NNW 18.4 mph - - Rain Light Rain Showers
11:50 AM 41.0 °F 32.2 °F 33.8 °F 76% 30.04 in 6.2 mi NNW 18.4 mph - N/A Rain Light Rain Showers
12:50 PM 42.8 °F 34.3 °F 32.0 °F 66% 30.01 in 6.2 mi NNW 19.6 mph - N/A   Scattered Clouds
1:50 PM 41.0 °F 32.2 °F 32.0 °F 70% 30.01 in 6.2 mi NNW 18.4 mph - N/A   Scattered Clouds
2:50 PM 40 °F - 31 °F 59% 30.03 in 31 mi NNW 18.4 mph - -   Partly Cloudy
2:50 PM 41.0 °F 32.2 °F 30.2 °F 65% 30.01 in 6.2 mi NNW 18.4 mph - N/A   Partly Cloudy
3:50 PM 37.4 °F 28.5 °F 30.2 °F 75% 30.01 in 6.2 mi NW 15.0 mph - N/A   Partly Cloudy
4:50 PM 35.6 °F 27.5 °F 30.2 °F 81% 30.01 in 6.2 mi WNW 11.5 mph - N/A   Partly Cloudy
5:50 PM 37 °F - 29 °F 64% 30.04 in 25 mi NNW 15.0 mph - -   Partly Cloudy
5:50 PM 37.4 °F 28.5 °F 28.4 °F 70% 30.01 in 6.2 mi NNW 15.0 mph - N/A   Partly Cloudy
7:50 PM 37.4 °F 29.3 °F 30.2 °F 75% 30.01 in 6.2 mi NW 12.7 mph - N/A   Mostly Cloudy
8:50 PM 38 °F - 31 °F 69% 30.04 in 19 mi NW 11.5 mph - -   Mostly Cloudy
8:50 PM 37.4 °F 29.8 °F 32.0 °F 81% 30.01 in 6.2 mi NW 11.5 mph - N/A   Mostly Cloudy
9:50 PM 37.4 °F 30.8 °F 32.0 °F 81% 30.04 in 6.2 mi NW 9.2 mph - N/A   Scattered Clouds
10:50 PM 35.6 °F 27.5 °F 30.2 °F 81% 30.01 in 6.2 mi NW 11.5 mph - N/A   Partly Cloudy
11:50 PM 36 °F - 30 °F 71% 30.03 in 15 mi NNW 11.5 mph - -  
11:50 PM 35.6 °F 27.5 °F 30.2 °F 81% 30.01 in 6.2 mi NNW 11.5 mph - N/A   Unknown